TJS-19

Last updated on Thu Oct 30 2025 00:02:53 GMT+0000 (Coordinated Universal Time)

1 63924U 25097A 25302.73069134 -.00000272 00000+0 00000+0 0 9992 2 63924 3.6965 314.2124 0003076 276.3436 212.0252 1.00269074 1834
UTC large
Height (km)
Speed (km/s)
/
Latitude / Longitude
Inclination (degrees)
Orbital Period (minutes)
Azimuth
Elevation
Range (km)
Doppler Factor

Next 0 passes for location: London (51.5072 / 0.1276)

Sorry there are no passes over London.